Time,TemperatureF,DewpointF,PressureIn,WindDirection,WindDirectionDegrees,WindSpeedMPH,WindSpeedGustMPH,Humidity,HourlyPrecipIn,Conditions,Clouds,dailyrainin,SoftwareType,DateUTC
2013-04-04 00:03:00,63.0,30.3,30.09,North,0,3.0,5.0,29,0.00,,SKC,0.00,VWS V14.01,2013-04-04 07:03:00,
2013-04-04 00:08:00,63.0,31.1,30.09,NNE,22,7.0,7.0,30,0.00,,SKC,0.00,VWS V14.01,2013-04-04 07:08:00,
2013-04-04 00:13:00,63.0,31.1,30.09,NNW,338,5.0,7.0,30,0.00,,SKC,0.00,VWS V14.01,2013-04-04 07:13:00,
2013-04-04 00:18:00,63.0,31.1,30.08,North,0,6.0,6.0,30,0.00,,SKC,0.00,VWS V14.01,2013-04-04 07:18:00,
2013-04-04 00:23:00,63.0,31.1,30.08,North,0,3.0,3.0,30,0.00,,SKC,0.00,VWS V14.01,2013-04-04 07:23:00,
2013-04-04 00:28:00,63.0,31.1,30.08,NNE,22,7.0,7.0,30,0.00,,SKC,0.00,VWS V14.01,2013-04-04 07:28:00,
2013-04-04 00:33:00,63.0,30.3,30.08,NNE,22,4.0,6.0,29,0.00,,SKC,0.00,VWS V14.01,2013-04-04 07:33:00,
2013-04-04 00:38:00,63.0,31.1,30.08,NNE,22,2.0,3.0,30,0.00,,SKC,0.00,VWS V14.01,2013-04-04 07:38:00,
2013-04-04 00:43:00,62.0,30.2,30.08,North,0,8.0,8.0,30,0.00,,SKC,0.00,VWS V14.01,2013-04-04 07:43:00,
2013-04-04 00:48:00,62.0,30.2,30.08,North,0,5.0,6.0,30,0.00,,SKC,0.00,VWS V14.01,2013-04-04 07:48:00,
2013-04-04 00:53:00,62.0,30.2,30.08,North,0,5.0,6.0,30,0.00,,SKC,0.00,VWS V14.01,2013-04-04 07:53:00,
2013-04-04 00:58:00,62.0,30.2,30.08,NW,315,4.0,5.0,30,0.00,,SKC,0.00,VWS V14.01,2013-04-04 07:58:00,
2013-04-04 01:03:00,62.0,30.2,30.08,NNW,338,3.0,4.0,30,0.00,,SKC,0.00,VWS V14.01,2013-04-04 08:03:00,
2013-04-04 01:08:00,62.0,30.2,30.08,North,0,3.0,4.0,30,0.00,,SKC,0.00,VWS V14.01,2013-04-04 08:08:00,
2013-04-04 01:13:00,62.0,30.2,30.08,North,0,2.0,3.0,30,0.00,,SKC,0.00,VWS V14.01,2013-04-04 08:13:00,
2013-04-04 01:18:00,62.0,30.2,30.08,North,0,3.0,4.0,30,0.00,,SKC,0.00,VWS V14.01,2013-04-04 08:18:00,
2013-04-04 01:23:00,63.0,31.1,30.09,SSE,158,0.0,1.0,30,0.00,,SKC,0.00,VWS V14.01,2013-04-04 08:23:00,
2013-04-04 01:28:00,61.0,30.2,30.09,SE,135,0.0,0.0,31,0.00,,SKC,0.00,VWS V14.01,2013-04-04 08:28:00,
2013-04-04 01:33:00,60.0,30.8,30.09,SE,135,0.0,0.0,33,0.00,,SKC,0.00,VWS V14.01,2013-04-04 08:33:00,
2013-04-04 01:38:00,59.0,30.7,30.09,SE,135,0.0,0.0,34,0.00,,SKC,0.00,VWS V14.01,2013-04-04 08:38:00,
2013-04-04 01:43:00,58.0,30.5,30.09,SE,135,0.0,0.0,35,0.00,,SKC,0.00,VWS V14.01,2013-04-04 08:43:00,
2013-04-04 01:48:00,57.0,29.6,30.09,ENE,68,0.0,1.0,35,0.00,,SKC,0.00,VWS V14.01,2013-04-04 08:48:00,
2013-04-04 01:53:00,57.0,30.3,30.09,NNE,22,0.0,0.0,36,0.00,,SKC,0.00,VWS V14.01,2013-04-04 08:53:00,
2013-04-04 01:58:00,56.0,29.4,30.09,NNE,22,0.0,0.0,36,0.00,,SKC,0.00,VWS V14.01,2013-04-04 08:58:00,
2013-04-04 02:03:00,56.0,29.4,30.08,NNE,22,2.0,3.0,36,0.00,,SKC,0.00,VWS V14.01,2013-04-04 09:03:00,
2013-04-04 02:09:00,56.0,30.1,30.08,NE,45,0.0,1.0,37,0.00,,SKC,0.00,VWS V14.01,2013-04-04 09:09:00,
2013-04-04 02:15:00,56.0,30.1,30.08,ENE,68,3.0,3.0,37,0.00,,SKC,0.00,VWS V14.01,2013-04-04 09:15:00,
2013-04-04 02:20:00,56.0,30.1,30.08,NNE,22,2.0,2.0,37,0.00,,SKC,0.00,VWS V14.01,2013-04-04 09:20:00,
2013-04-04 02:25:00,56.0,30.1,30.08,NE,45,2.0,2.0,37,0.00,,SKC,0.00,VWS V14.01,2013-04-04 09:25:00,
2013-04-04 02:30:00,56.0,30.1,30.08,NNE,22,1.0,2.0,37,0.00,,SKC,0.00,VWS V14.01,2013-04-04 09:30:00,
2013-04-04 02:35:00,56.0,30.1,30.07,NE,45,3.0,3.0,37,0.00,,SKC,0.00,VWS V14.01,2013-04-04 09:35:00,
2013-04-04 02:40:00,56.0,30.1,30.07,North,0,3.0,5.0,37,0.00,,SKC,0.00,VWS V14.01,2013-04-04 09:40:00,
2013-04-04 02:45:00,57.0,30.3,30.07,North,0,3.0,5.0,36,0.00,,SKC,0.00,VWS V14.01,2013-04-04 09:45:00,
2013-04-04 02:50:00,57.0,30.3,30.07,NNW,338,3.0,3.0,36,0.00,,SKC,0.00,VWS V14.01,2013-04-04 09:50:00,
2013-04-04 02:56:00,56.0,29.4,30.07,NNW,338,6.0,6.0,36,0.00,,SKC,0.00,VWS V14.01,2013-04-04 09:56:00,
2013-04-04 03:01:00,57.0,30.3,30.07,North,0,4.0,6.0,36,0.00,,SKC,0.00,VWS V14.01,2013-04-04 10:01:00,
2013-04-04 03:06:00,58.0,31.2,30.07,North,0,3.0,3.0,36,0.00,,SKC,0.00,VWS V14.01,2013-04-04 10:06:00,
2013-04-04 03:12:00,58.0,30.5,30.08,ESE,112,4.0,4.0,35,0.00,,SKC,0.00,VWS V14.01,2013-04-04 10:12:00,
2013-04-04 03:17:00,57.0,30.3,30.07,NE,45,0.0,0.0,36,0.00,,SKC,0.00,VWS V14.01,2013-04-04 10:17:00,
2013-04-04 03:22:00,57.0,30.3,30.08,North,0,0.0,0.0,36,0.00,,SKC,0.00,VWS V14.01,2013-04-04 10:22:00,
2013-04-04 03:28:00,58.0,31.2,30.08,ENE,68,0.0,0.0,36,0.00,,SKC,0.00,VWS V14.01,2013-04-04 10:28:00,
2013-04-04 03:34:00,57.0,30.3,30.08,ESE,112,0.0,0.0,36,0.00,,SKC,0.00,VWS V14.01,2013-04-04 10:34:00,
2013-04-04 03:39:00,56.0,30.1,30.08,East,90,1.0,2.0,37,0.00,,SKC,0.00,VWS V14.01,2013-04-04 10:39:00,
2013-04-04 03:44:00,55.0,29.9,30.08,ENE,68,0.0,0.0,38,0.00,,SKC,0.00,VWS V14.01,2013-04-04 10:44:00,
2013-04-04 03:49:00,55.0,30.5,30.08,ENE,68,0.0,0.0,39,0.00,,SKC,0.00,VWS V14.01,2013-04-04 10:49:00,
2013-04-04 03:55:00,55.0,30.5,30.08,ENE,68,0.0,0.0,39,0.00,,SKC,0.00,VWS V14.01,2013-04-04 10:55:00,
2013-04-04 04:00:00,55.0,31.1,30.08,NE,45,0.0,0.0,40,0.00,,SKC,0.00,VWS V14.01,2013-04-04 11:00:00,
2013-04-04 04:05:00,55.0,31.1,30.08,NNE,22,2.0,2.0,40,0.00,,SKC,0.00,VWS V14.01,2013-04-04 11:05:00,
2013-04-04 04:11:00,55.0,30.5,30.08,NNE,22,3.0,3.0,39,0.00,,SKC,0.00,VWS V14.01,2013-04-04 11:11:00,
2013-04-04 04:17:00,56.0,30.8,30.08,North,0,3.0,3.0,38,0.00,,SKC,0.00,VWS V14.01,2013-04-04 11:17:00,
2013-04-04 04:22:00,56.0,30.8,30.08,NNW,338,1.0,1.0,38,0.00,,SKC,0.00,VWS V14.01,2013-04-04 11:22:00,
2013-04-04 04:27:00,55.0,30.5,30.08,North,0,1.0,1.0,39,0.00,,SKC,0.00,VWS V14.01,2013-04-04 11:27:00,
2013-04-04 04:32:00,55.0,30.5,30.08,North,0,1.0,2.0,39,0.00,,SKC,0.00,VWS V14.01,2013-04-04 11:32:00,
2013-04-04 04:37:00,55.0,30.5,30.08,ESE,112,0.0,1.0,39,0.00,,SKC,0.00,VWS V14.01,2013-04-04 11:37:00,
2013-04-04 04:42:00,54.0,30.2,30.08,ENE,68,0.0,0.0,40,0.00,,SKC,0.00,VWS V14.01,2013-04-04 11:42:00,
2013-04-04 04:47:00,54.0,30.9,30.08,ENE,68,0.0,0.0,41,0.00,,SKC,0.00,VWS V14.01,2013-04-04 11:47:00,
2013-04-04 04:52:00,53.0,30.5,30.08,NNE,22,1.0,1.0,42,0.00,,SKC,0.00,VWS V14.01,2013-04-04 11:52:00,
2013-04-04 04:57:00,54.0,31.5,30.08,NNE,22,4.0,4.0,42,0.00,,SKC,0.00,VWS V14.01,2013-04-04 11:57:00,
2013-04-04 05:02:00,54.0,30.9,30.08,North,0,1.0,2.0,41,0.00,,SKC,0.00,VWS V14.01,2013-04-04 12:02:00,
2013-04-04 05:07:00,55.0,31.8,30.08,NE,45,0.0,0.0,41,0.00,,SKC,0.00,VWS V14.01,2013-04-04 12:07:00,
2013-04-04 05:12:00,55.0,31.8,30.08,ENE,68,0.0,0.0,41,0.00,,SKC,0.00,VWS V14.01,2013-04-04 12:12:00,
2013-04-04 05:17:00,54.0,30.9,30.08,NNE,22,3.0,4.0,41,0.00,,SKC,0.00,VWS V14.01,2013-04-04 12:17:00,
2013-04-04 05:23:00,54.0,30.9,30.08,North,0,0.0,0.0,41,0.00,,SKC,0.00,VWS V14.01,2013-04-04 12:23:00,
2013-04-04 05:28:00,54.0,31.5,30.09,South,180,0.0,0.0,42,0.00,,SKC,0.00,VWS V14.01,2013-04-04 12:28:00,
2013-04-04 05:33:00,54.0,31.5,30.09,South,180,0.0,0.0,42,0.00,,SKC,0.00,VWS V14.01,2013-04-04 12:33:00,
2013-04-04 05:38:00,53.0,31.1,30.09,SSE,158,0.0,0.0,43,0.00,,SKC,0.00,VWS V14.01,2013-04-04 12:38:00,
2013-04-04 05:44:00,52.0,30.8,30.09,SSE,158,0.0,0.0,44,0.00,,SKC,0.00,VWS V14.01,2013-04-04 12:44:00,
2013-04-04 05:49:00,51.0,30.4,30.09,SSE,158,0.0,0.0,45,0.00,,SKC,0.00,VWS V14.01,2013-04-04 12:49:00,
2013-04-04 05:54:00,51.0,31.0,30.09,SSE,158,0.0,0.0,46,0.00,,SKC,0.00,VWS V14.01,2013-04-04 12:54:00,
2013-04-04 06:00:00,51.0,31.0,30.09,ESE,112,0.0,0.0,46,0.00,,SKC,0.00,VWS V14.01,2013-04-04 13:00:00,
2013-04-04 06:05:00,52.0,31.3,30.09,ESE,112,0.0,0.0,45,0.00,,SKC,0.00,VWS V14.01,2013-04-04 13:05:00,
2013-04-04 06:12:00,53.0,31.7,30.10,NE,45,0.0,0.0,44,0.00,,SKC,0.00,VWS V14.01,2013-04-04 13:12:00,
2013-04-04 06:17:00,53.0,31.1,30.10,North,0,3.0,3.0,43,0.00,,SKC,0.00,VWS V14.01,2013-04-04 13:17:00,
2013-04-04 06:23:00,53.0,31.1,30.09,NNE,22,2.0,4.0,43,0.00,,SKC,0.00,VWS V14.01,2013-04-04 13:23:00,
2013-04-04 06:28:00,53.0,31.1,30.10,NNE,22,3.0,3.0,43,0.00,,SKC,0.00,VWS V14.01,2013-04-04 13:28:00,
2013-04-04 06:33:00,53.0,31.1,30.09,NNE,22,1.0,2.0,43,0.00,,SKC,0.00,VWS V14.01,2013-04-04 13:33:00,
2013-04-04 06:38:00,54.0,31.5,30.10,North,0,4.0,5.0,42,0.00,,SKC,0.00,VWS V14.01,2013-04-04 13:38:00,
2013-04-04 06:43:00,54.0,31.5,30.10,North,0,0.0,0.0,42,0.00,,SKC,0.00,VWS V14.01,2013-04-04 13:43:00,
2013-04-04 06:48:00,54.0,32.0,30.10,WNW,292,0.0,0.0,43,0.00,,SKC,0.00,VWS V14.01,2013-04-04 13:48:00,
2013-04-04 06:53:00,54.0,32.0,30.10,NNW,338,0.0,0.0,43,0.00,,SKC,0.00,VWS V14.01,2013-04-04 13:53:00,
2013-04-04 06:59:00,54.0,32.0,30.10,NE,45,0.0,0.0,43,0.00,,SKC,0.00,VWS V14.01,2013-04-04 13:59:00,
2013-04-04 07:04:00,54.0,32.0,30.10,ENE,68,0.0,0.0,43,0.00,,SKC,0.00,VWS V14.01,2013-04-04 14:04:00,
2013-04-04 07:09:00,54.0,32.0,30.10,ENE,68,0.0,0.0,43,0.00,,SKC,0.00,VWS V14.01,2013-04-04 14:09:00,
2013-04-04 07:15:00,54.0,31.5,30.11,NE,45,0.0,1.0,42,0.00,,SKC,0.00,VWS V14.01,2013-04-04 14:15:00,
2013-04-04 07:21:00,55.0,32.3,30.11,NE,45,0.0,1.0,42,0.00,,SKC,0.00,VWS V14.01,2013-04-04 14:21:00,
2013-04-04 07:26:00,56.0,33.2,30.11,NE,45,0.0,0.0,42,0.00,,SKC,0.00,VWS V14.01,2013-04-04 14:26:00,
2013-04-04 07:31:00,56.0,32.7,30.11,ENE,68,0.0,1.0,41,0.00,,SKC,0.00,VWS V14.01,2013-04-04 14:31:00,
2013-04-04 07:37:00,57.0,32.9,30.11,ENE,68,1.0,2.0,40,0.00,,SKC,0.00,VWS V14.01,2013-04-04 14:37:00,
2013-04-04 07:42:00,58.0,33.2,30.11,NNE,22,0.0,0.0,39,0.00,,SKC,0.00,VWS V14.01,2013-04-04 14:42:00,
2013-04-04 07:47:00,59.0,33.5,30.12,ENE,68,0.0,0.0,38,0.00,,SKC,0.00,VWS V14.01,2013-04-04 14:47:00,
2013-04-04 07:53:00,60.0,33.7,30.12,ESE,112,1.0,2.0,37,0.00,,SKC,0.00,VWS V14.01,2013-04-04 14:53:00,
2013-04-04 07:58:00,61.0,33.9,30.12,East,90,3.0,3.0,36,0.00,,SKC,0.00,VWS V14.01,2013-04-04 14:58:00,
2013-04-04 08:04:00,62.0,34.8,30.12,ENE,68,0.0,0.0,36,0.00,,SKC,0.00,VWS V14.01,2013-04-04 15:04:00,
2013-04-04 08:09:00,63.0,34.2,30.12,ENE,68,0.0,0.0,34,0.00,,SKC,0.00,VWS V14.01,2013-04-04 15:09:00,
2013-04-04 08:15:00,64.0,33.6,30.12,ESE,112,3.0,4.0,32,0.00,,SKC,0.00,VWS V14.01,2013-04-04 15:15:00,
2013-04-04 08:20:00,65.0,33.7,30.12,NE,45,0.0,0.0,31,0.00,,SKC,0.00,VWS V14.01,2013-04-04 15:20:00,
2013-04-04 08:25:00,66.0,33.7,30.11,ENE,68,2.0,3.0,30,0.00,,SKC,0.00,VWS V14.01,2013-04-04 15:25:00,
2013-04-04 08:30:00,67.0,32.8,30.11,ENE,68,1.0,3.0,28,0.00,,SKC,0.00,VWS V14.01,2013-04-04 15:30:00,
2013-04-04 08:36:00,67.0,34.6,30.11,South,180,2.0,2.0,30,0.00,,SKC,0.00,VWS V14.01,2013-04-04 15:36:00,
2013-04-04 08:41:00,67.0,34.6,30.11,South,180,2.0,3.0,30,0.00,,SKC,0.00,VWS V14.01,2013-04-04 15:41:00,
2013-04-04 08:46:00,68.0,34.6,30.12,SSE,158,0.0,1.0,29,0.00,,SKC,0.00,VWS V14.01,2013-04-04 15:46:00,
2013-04-04 08:52:00,68.0,34.6,30.12,SSE,158,3.0,3.0,29,0.00,,SKC,0.00,VWS V14.01,2013-04-04 15:52:00,
2013-04-04 08:58:00,68.0,34.6,30.12,SSE,158,3.0,3.0,29,0.00,,SKC,0.00,VWS V14.01,2013-04-04 15:58:00,
2013-04-04 09:03:00,68.0,32.8,30.12,SE,135,3.0,4.0,27,0.00,,SKC,0.00,VWS V14.01,2013-04-04 16:03:00,
2013-04-04 09:08:00,69.0,33.7,30.11,South,180,3.0,4.0,27,0.00,,SKC,0.00,VWS V14.01,2013-04-04 16:08:00,
2013-04-04 09:13:00,69.0,32.7,30.11,SSE,158,1.0,1.0,26,0.00,,SKC,0.00,VWS V14.01,2013-04-04 16:13:00,
2013-04-04 09:18:00,70.0,32.6,30.11,SSE,158,4.0,4.0,25,0.00,,SKC,0.00,VWS V14.01,2013-04-04 16:18:00,
2013-04-04 09:23:00,71.0,32.4,30.11,SSE,158,0.0,1.0,24,0.00,,SKC,0.00,VWS V14.01,2013-04-04 16:23:00,
2013-04-04 09:28:00,71.0,32.4,30.11,ESE,112,5.0,5.0,24,0.00,,SKC,0.00,VWS V14.01,2013-04-04 16:28:00,
2013-04-04 09:33:00,72.0,33.3,30.11,SSW,202,0.0,1.0,24,0.00,,SKC,0.00,VWS V14.01,2013-04-04 16:33:00,
2013-04-04 09:38:00,73.0,33.0,30.11,SSE,158,2.0,3.0,23,0.00,,SKC,0.00,VWS V14.01,2013-04-04 16:38:00,
2013-04-04 09:43:00,74.0,33.9,30.11,SSW,202,2.0,3.0,23,0.00,,SKC,0.00,VWS V14.01,2013-04-04 16:43:00,
2013-04-04 09:48:00,74.0,32.8,30.11,South,180,0.0,0.0,22,0.00,,SKC,0.00,VWS V14.01,2013-04-04 16:48:00,
2013-04-04 09:53:00,73.0,33.0,30.11,SW,225,4.0,4.0,23,0.00,,SKC,0.00,VWS V14.01,2013-04-04 16:53:00,
2013-04-04 09:58:00,74.0,32.8,30.11,West,270,5.0,5.0,22,0.00,,SKC,0.00,VWS V14.01,2013-04-04 16:58:00,
2013-04-04 10:03:00,74.0,33.9,30.11,SW,225,3.0,3.0,23,0.00,,SKC,0.00,VWS V14.01,2013-04-04 17:03:00,
2013-04-04 10:08:00,74.0,32.8,30.11,SSW,202,5.0,6.0,22,0.00,,SKC,0.00,VWS V14.01,2013-04-04 17:08:00,
2013-04-04 10:13:00,75.0,33.6,30.11,SSW,202,2.0,3.0,22,0.00,,SKC,0.00,VWS V14.01,2013-04-04 17:13:00,
2013-04-04 10:18:00,75.0,33.6,30.11,WSW,248,3.0,3.0,22,0.00,,SKC,0.00,VWS V14.01,2013-04-04 17:18:00,
2013-04-04 10:23:00,75.0,33.6,30.11,SSW,202,0.0,0.0,22,0.00,,SKC,0.00,VWS V14.01,2013-04-04 17:23:00,
2013-04-04 10:28:00,76.0,33.3,30.11,ENE,68,3.0,4.0,21,0.00,,SKC,0.00,VWS V14.01,2013-04-04 17:28:00,
2013-04-04 10:33:00,75.0,32.5,30.10,WSW,248,0.0,0.0,21,0.00,,SKC,0.00,VWS V14.01,2013-04-04 17:33:00,
2013-04-04 10:38:00,76.0,33.3,30.10,SW,225,1.0,1.0,21,0.00,,SKC,0.00,VWS V14.01,2013-04-04 17:38:00,
2013-04-04 10:43:00,77.0,34.1,30.10,WSW,248,1.0,2.0,21,0.00,,SKC,0.00,VWS V14.01,2013-04-04 17:43:00,
2013-04-04 10:48:00,77.0,32.9,30.10,South,180,1.0,1.0,20,0.00,,SKC,0.00,VWS V14.01,2013-04-04 17:48:00,
2013-04-04 10:53:00,78.0,31.1,30.10,ESE,112,2.0,3.0,18,0.00,,SKC,0.00,VWS V14.01,2013-04-04 17:53:00,
2013-04-04 10:58:00,79.0,31.9,30.10,South,180,1.0,1.0,18,0.00,,SKC,0.00,VWS V14.01,2013-04-04 17:58:00,
2013-04-04 11:03:00,80.0,31.3,30.10,SSE,158,5.0,6.0,17,0.00,,SKC,0.00,VWS V14.01,2013-04-04 18:03:00,
2013-04-04 11:08:00,81.0,32.1,30.09,SSW,202,3.0,3.0,17,0.00,,SKC,0.00,VWS V14.01,2013-04-04 18:08:00,
2013-04-04 11:13:00,81.0,30.6,30.09,ESE,112,8.0,10.0,16,0.00,,SKC,0.00,VWS V14.01,2013-04-04 18:13:00,
2013-04-04 11:18:00,82.0,32.9,30.09,SSW,202,3.0,5.0,17,0.00,,SKC,0.00,VWS V14.01,2013-04-04 18:18:00,
2013-04-04 11:23:00,82.0,32.9,30.09,SSE,158,5.0,6.0,17,0.00,,SKC,0.00,VWS V14.01,2013-04-04 18:23:00,
2013-04-04 11:28:00,84.0,33.0,30.09,SSE,158,3.0,5.0,16,0.00,,SKC,0.00,VWS V14.01,2013-04-04 18:28:00,
2013-04-04 11:33:00,83.0,27.1,30.08,SSE,158,5.0,5.0,13,0.00,,SKC,0.00,VWS V14.01,2013-04-04 18:33:00,
2013-04-04 11:38:00,83.0,25.2,30.08,SSE,158,10.0,13.0,12,0.00,,SKC,0.00,VWS V14.01,2013-04-04 18:38:00,
2013-04-04 11:43:00,83.0,25.2,30.08,East,90,10.0,10.0,12,0.00,,SKC,0.00,VWS V14.01,2013-04-04 18:43:00,
2013-04-04 11:48:00,83.0,25.2,30.08,ESE,112,5.0,7.0,12,0.00,,SKC,0.00,VWS V14.01,2013-04-04 18:48:00,
2013-04-04 11:53:00,83.0,25.2,30.08,SE,135,8.0,8.0,12,0.00,,SKC,0.00,VWS V14.01,2013-04-04 18:53:00,
2013-04-04 11:58:00,84.0,26.0,30.08,SW,225,3.0,5.0,12,0.00,,SKC,0.00,VWS V14.01,2013-04-04 18:58:00,
2013-04-04 12:03:00,84.0,23.9,30.08,SSE,158,13.0,14.0,11,0.00,,SKC,0.00,VWS V14.01,2013-04-04 19:03:00,
2013-04-04 12:08:00,85.0,24.7,30.07,SE,135,11.0,11.0,11,0.00,,SKC,0.00,VWS V14.01,2013-04-04 19:08:00,
2013-04-04 12:13:00,83.0,23.1,30.07,ESE,112,13.0,13.0,11,0.00,,SKC,0.00,VWS V14.01,2013-04-04 19:13:00,
2013-04-04 12:18:00,84.0,23.9,30.07,SE,135,6.0,7.0,11,0.00,,SKC,0.00,VWS V14.01,2013-04-04 19:18:00,
2013-04-04 12:23:00,84.0,23.9,30.07,SE,135,5.0,8.0,11,0.00,,SKC,0.00,VWS V14.01,2013-04-04 19:23:00,
2013-04-04 12:28:00,84.0,23.9,30.06,SSE,158,8.0,8.0,11,0.00,,SKC,0.00,VWS V14.01,2013-04-04 19:28:00,
2013-04-04 12:33:00,85.0,24.7,30.06,SSE,158,11.0,12.0,11,0.00,,SKC,0.00,VWS V14.01,2013-04-04 19:33:00,
2013-04-04 12:38:00,85.0,24.7,30.06,WSW,248,8.0,10.0,11,0.00,,SKC,0.00,VWS V14.01,2013-04-04 19:38:00,
2013-04-04 12:43:00,85.0,24.7,30.06,SW,225,3.0,3.0,11,0.00,,SKC,0.00,VWS V14.01,2013-04-04 19:43:00,
2013-04-04 12:48:00,85.0,22.4,30.06,ESE,112,5.0,6.0,10,0.00,,SKC,0.00,VWS V14.01,2013-04-04 19:48:00,
2013-04-04 12:54:00,85.0,22.4,30.06,SE,135,8.0,9.0,10,0.00,,SKC,0.00,VWS V14.01,2013-04-04 19:54:00,
2013-04-04 12:59:00,85.0,24.7,30.06,SE,135,6.0,7.0,11,0.00,,SKC,0.00,VWS V14.01,2013-04-04 19:59:00,
2013-04-04 13:05:00,85.0,24.7,30.06,South,180,4.0,5.0,11,0.00,,SKC,0.00,VWS V14.01,2013-04-04 20:05:00,
2013-04-04 13:10:00,85.0,24.7,30.05,SSW,202,5.0,5.0,11,0.00,,SKC,0.00,VWS V14.01,2013-04-04 20:10:00,
2013-04-04 13:15:00,85.0,24.7,30.05,SE,135,5.0,6.0,11,0.00,,SKC,0.00,VWS V14.01,2013-04-04 20:15:00,
2013-04-04 13:20:00,85.0,24.7,30.05,SSE,158,6.0,6.0,11,0.00,,SKC,0.00,VWS V14.01,2013-04-04 20:20:00,
2013-04-04 13:25:00,85.0,24.7,30.05,SE,135,8.0,8.0,11,0.00,,SKC,0.00,VWS V14.01,2013-04-04 20:25:00,
2013-04-04 13:30:00,85.0,24.7,30.05,WSW,248,2.0,3.0,11,0.00,,SKC,0.00,VWS V14.01,2013-04-04 20:30:00,
2013-04-04 13:35:00,86.0,25.4,30.05,South,180,5.0,7.0,11,0.00,,SKC,0.00,VWS V14.01,2013-04-04 20:35:00,
2013-04-04 13:40:00,87.0,26.2,30.04,WNW,292,0.0,0.0,11,0.00,,SKC,0.00,VWS V14.01,2013-04-04 20:40:00,
2013-04-04 13:45:00,86.0,23.2,30.04,East,90,10.0,10.0,10,0.00,,SKC,0.00,VWS V14.01,2013-04-04 20:45:00,
2013-04-04 13:50:00,86.0,23.2,30.04,ESE,112,8.0,8.0,10,0.00,,SKC,0.00,VWS V14.01,2013-04-04 20:50:00,
2013-04-04 13:55:00,88.0,24.7,30.04,SSW,202,3.0,3.0,10,0.00,,SKC,0.00,VWS V14.01,2013-04-04 20:55:00,
2013-04-04 14:02:00,88.0,24.7,30.03,SSW,202,5.0,6.0,10,0.00,,SKC,0.00,VWS V14.01,2013-04-04 21:02:00,
2013-04-04 14:07:00,88.0,24.7,30.04,SE,135,5.0,6.0,10,0.00,,SKC,0.00,VWS V14.01,2013-04-04 21:07:00,
2013-04-04 14:12:00,87.0,23.9,30.03,East,90,8.0,10.0,10,0.00,,SKC,0.00,VWS V14.01,2013-04-04 21:12:00,
2013-04-04 14:17:00,85.0,22.4,30.03,WSW,248,3.0,5.0,10,0.00,,SKC,0.00,VWS V14.01,2013-04-04 21:17:00,
2013-04-04 14:22:00,86.0,25.4,30.02,WNW,292,0.0,1.0,11,0.00,,SKC,0.00,VWS V14.01,2013-04-04 21:22:00,
2013-04-04 14:27:00,87.0,23.9,30.02,ESE,112,5.0,5.0,10,0.00,,SKC,0.00,VWS V14.01,2013-04-04 21:27:00,
2013-04-04 14:32:00,86.0,25.4,30.02,ESE,112,5.0,6.0,11,0.00,,SKC,0.00,VWS V14.01,2013-04-04 21:32:00,
2013-04-04 14:38:00,87.0,26.2,30.02,South,180,1.0,2.0,11,0.00,,SKC,0.00,VWS V14.01,2013-04-04 21:38:00,
2013-04-04 14:43:00,87.0,23.9,30.01,West,270,4.0,4.0,10,0.00,,SKC,0.00,VWS V14.01,2013-04-04 21:43:00,
2013-04-04 14:48:00,86.0,23.2,30.01,NNW,338,3.0,3.0,10,0.00,,SKC,0.00,VWS V14.01,2013-04-04 21:48:00,
2013-04-04 14:53:00,87.0,23.9,30.01,SE,135,1.0,2.0,10,0.00,,SKC,0.00,VWS V14.01,2013-04-04 21:53:00,
2013-04-04 14:58:00,87.0,23.9,30.01,East,90,4.0,4.0,10,0.00,,SKC,0.00,VWS V14.01,2013-04-04 21:58:00,
2013-04-04 15:04:00,87.0,23.9,30.01,ESE,112,3.0,3.0,10,0.00,,SKC,0.00,VWS V14.01,2013-04-04 22:04:00,
2013-04-04 15:10:00,88.0,24.7,30.01,SSE,158,7.0,8.0,10,0.00,,SKC,0.00,VWS V14.01,2013-04-04 22:10:00,
2013-04-04 15:15:00,87.0,23.9,30.00,SSE,158,7.0,7.0,10,0.00,,SKC,0.00,VWS V14.01,2013-04-04 22:15:00,
2013-04-04 15:20:00,87.0,23.9,30.00,East,90,4.0,6.0,10,0.00,,SKC,0.00,VWS V14.01,2013-04-04 22:20:00,
2013-04-04 15:25:00,87.0,23.9,30.00,SW,225,6.0,8.0,10,0.00,,SKC,0.00,VWS V14.01,2013-04-04 22:25:00,
2013-04-04 15:30:00,88.0,22.2,30.00,SW,225,3.0,3.0,9,0.00,,SKC,0.00,VWS V14.01,2013-04-04 22:30:00,
2013-04-04 15:35:00,90.0,23.7,30.00,South,180,1.0,2.0,9,0.00,,SKC,0.00,VWS V14.01,2013-04-04 22:35:00,
2013-04-04 15:41:00,90.0,20.9,30.00,South,180,4.0,6.0,8,0.00,,SKC,0.00,VWS V14.01,2013-04-04 22:41:00,
2013-04-04 15:46:00,88.0,19.4,29.99,SE,135,6.0,8.0,8,0.00,,SKC,0.00,VWS V14.01,2013-04-04 22:46:00,
2013-04-04 15:51:00,87.0,21.4,29.99,SE,135,7.0,8.0,9,0.00,,SKC,0.00,VWS V14.01,2013-04-04 22:51:00,
2013-04-04 15:56:00,87.0,21.4,29.99,ESE,112,4.0,4.0,9,0.00,,SKC,0.00,VWS V14.01,2013-04-04 22:56:00,
2013-04-04 16:02:00,88.0,22.2,29.99,SW,225,4.0,6.0,9,0.00,,SKC,0.00,VWS V14.01,2013-04-04 23:02:00,
2013-04-04 16:07:00,87.0,21.4,29.99,South,180,1.0,2.0,9,0.00,,SKC,0.00,VWS V14.01,2013-04-04 23:07:00,
2013-04-04 16:12:00,87.0,21.4,29.99,WNW,292,0.0,0.0,9,0.00,,SKC,0.00,VWS V14.01,2013-04-04 23:12:00,
2013-04-04 16:18:00,86.0,20.7,29.99,SSE,158,5.0,6.0,9,0.00,,SKC,0.00,VWS V14.01,2013-04-04 23:18:00,
2013-04-04 16:24:00,86.0,20.7,29.98,ESE,112,3.0,3.0,9,0.00,,SKC,0.00,VWS V14.01,2013-04-04 23:24:00,
2013-04-04 16:29:00,86.0,20.7,29.98,SE,135,3.0,3.0,9,0.00,,SKC,0.00,VWS V14.01,2013-04-04 23:29:00,
2013-04-04 16:34:00,86.0,20.7,29.98,ESE,112,2.0,4.0,9,0.00,,SKC,0.00,VWS V14.01,2013-04-04 23:34:00,
2013-04-04 16:40:00,86.0,20.7,29.98,SW,225,2.0,2.0,9,0.00,,SKC,0.00,VWS V14.01,2013-04-04 23:40:00,
2013-04-04 16:45:00,86.0,23.2,29.98,SSE,158,1.0,1.0,10,0.00,,SKC,0.00,VWS V14.01,2013-04-04 23:45:00,
2013-04-04 16:51:00,86.0,20.7,29.98,SW,225,1.0,1.0,9,0.00,,SKC,0.00,VWS V14.01,2013-04-04 23:51:00,
2013-04-04 16:56:00,86.0,23.2,29.98,SSW,202,1.0,1.0,10,0.00,,SKC,0.00,VWS V14.01,2013-04-04 23:56:00,
2013-04-04 17:02:00,86.0,23.2,29.98,SSW,202,3.0,3.0,10,0.00,,SKC,0.00,VWS V14.01,2013-04-05 00:02:00,
2013-04-04 17:08:00,85.0,22.4,29.98,SW,225,1.0,1.0,10,0.00,,SKC,0.00,VWS V14.01,2013-04-05 00:08:00,
2013-04-04 17:13:00,85.0,22.4,29.98,SW,225,2.0,3.0,10,0.00,,SKC,0.00,VWS V14.01,2013-04-05 00:13:00,
2013-04-04 17:18:00,85.0,22.4,29.98,SSW,202,3.0,3.0,10,0.00,,SKC,0.00,VWS V14.01,2013-04-05 00:18:00,
2013-04-04 17:23:00,85.0,22.4,29.98,SSE,158,0.0,0.0,10,0.00,,SKC,0.00,VWS V14.01,2013-04-05 00:23:00,
2013-04-04 17:29:00,85.0,22.4,29.98,SW,225,3.0,3.0,10,0.00,,SKC,0.00,VWS V14.01,2013-04-05 00:29:00,
2013-04-04 17:35:00,84.0,21.6,29.99,WSW,248,5.0,6.0,10,0.00,,SKC,0.00,VWS V14.01,2013-04-05 00:35:00,
2013-04-04 17:41:00,83.0,20.9,29.98,West,270,5.0,6.0,10,0.00,,SKC,0.00,VWS V14.01,2013-04-05 00:41:00,
2013-04-04 17:46:00,83.0,20.9,29.98,West,270,5.0,6.0,10,0.00,,SKC,0.00,VWS V14.01,2013-04-05 00:46:00,
2013-04-04 17:52:00,83.0,20.9,29.98,WSW,248,9.0,9.0,10,0.00,,SKC,0.00,VWS V14.01,2013-04-05 00:52:00,
2013-04-04 17:57:00,82.0,20.1,29.98,WSW,248,5.0,7.0,10,0.00,,SKC,0.00,VWS V14.01,2013-04-05 00:57:00,
2013-04-04 18:02:00,82.0,22.4,29.98,West,270,6.0,9.0,11,0.00,,SKC,0.00,VWS V14.01,2013-04-05 01:02:00,
2013-04-04 18:07:00,82.0,24.4,29.98,West,270,6.0,8.0,12,0.00,,SKC,0.00,VWS V14.01,2013-04-05 01:07:00,
2013-04-04 18:12:00,82.0,24.4,29.98,NW,315,8.0,9.0,12,0.00,,SKC,0.00,VWS V14.01,2013-04-05 01:12:00,
2013-04-04 18:17:00,81.0,25.6,29.98,WNW,292,6.0,6.0,13,0.00,,SKC,0.00,VWS V14.01,2013-04-05 01:17:00,
2013-04-04 18:23:00,81.0,25.6,29.98,West,270,6.0,9.0,13,0.00,,SKC,0.00,VWS V14.01,2013-04-05 01:23:00,
2013-04-04 18:29:00,80.0,24.8,29.98,WNW,292,6.0,7.0,13,0.00,,SKC,0.00,VWS V14.01,2013-04-05 01:29:00,
2013-04-04 18:35:00,80.0,26.6,29.98,WSW,248,5.0,5.0,14,0.00,,SKC,0.00,VWS V14.01,2013-04-05 01:35:00,
2013-04-04 18:41:00,80.0,26.6,29.98,West,270,6.0,6.0,14,0.00,,SKC,0.00,VWS V14.01,2013-04-05 01:41:00,
2013-04-04 18:47:00,79.0,25.8,29.99,WNW,292,5.0,5.0,14,0.00,,SKC,0.00,VWS V14.01,2013-04-05 01:47:00,
2013-04-04 18:52:00,79.0,25.8,29.99,NW,315,5.0,5.0,14,0.00,,SKC,0.00,VWS V14.01,2013-04-05 01:52:00,
2013-04-04 18:58:00,79.0,25.8,29.99,WSW,248,5.0,6.0,14,0.00,,SKC,0.00,VWS V14.01,2013-04-05 01:58:00,
2013-04-04 19:03:00,79.0,27.5,29.99,NW,315,5.0,5.0,15,0.00,,SKC,0.00,VWS V14.01,2013-04-05 02:03:00,
2013-04-04 19:08:00,78.0,26.6,30.00,NW,315,3.0,3.0,15,0.00,,SKC,0.00,VWS V14.01,2013-04-05 02:08:00,
2013-04-04 19:13:00,78.0,26.6,30.00,WNW,292,0.0,0.0,15,0.00,,SKC,0.00,VWS V14.01,2013-04-05 02:13:00,
2013-04-04 19:19:00,78.0,26.6,30.00,ENE,68,0.0,0.0,15,0.00,,SKC,0.00,VWS V14.01,2013-04-05 02:19:00,
2013-04-04 19:24:00,77.0,25.9,30.00,NE,45,0.0,0.0,15,0.00,,SKC,0.00,VWS V14.01,2013-04-05 02:24:00,
2013-04-04 19:30:00,77.0,25.9,30.00,NNE,22,0.0,0.0,15,0.00,,SKC,0.00,VWS V14.01,2013-04-05 02:30:00,
2013-04-04 19:35:00,77.0,25.9,30.00,NE,45,0.0,0.0,15,0.00,,SKC,0.00,VWS V14.01,2013-04-05 02:35:00,
2013-04-04 19:40:00,77.0,25.9,30.01,NE,45,1.0,1.0,15,0.00,,SKC,0.00,VWS V14.01,2013-04-05 02:40:00,
2013-04-04 19:45:00,77.0,27.4,30.01,NNE,22,0.0,0.0,16,0.00,,SKC,0.00,VWS V14.01,2013-04-05 02:45:00,
2013-04-04 19:51:00,77.0,25.9,30.01,ENE,68,0.0,1.0,15,0.00,,SKC,0.00,VWS V14.01,2013-04-05 02:51:00,
2013-04-04 19:57:00,77.0,27.4,30.01,NE,45,2.0,3.0,16,0.00,,SKC,0.00,VWS V14.01,2013-04-05 02:57:00,
2013-04-04 20:03:00,76.0,26.6,30.01,NE,45,1.0,3.0,16,0.00,,SKC,0.00,VWS V14.01,2013-04-05 03:03:00,
2013-04-04 20:09:00,76.0,26.6,30.01,NE,45,0.0,0.0,16,0.00,,SKC,0.00,VWS V14.01,2013-04-05 03:09:00,
2013-04-04 20:14:00,76.0,26.6,30.02,NNE,22,0.0,1.0,16,0.00,,SKC,0.00,VWS V14.01,2013-04-05 03:14:00,
2013-04-04 20:19:00,76.0,28.1,30.02,NNE,22,1.0,2.0,17,0.00,,SKC,0.00,VWS V14.01,2013-04-05 03:19:00,
2013-04-04 20:25:00,75.0,27.3,30.02,NE,45,0.0,0.0,17,0.00,,SKC,0.00,VWS V14.01,2013-04-05 03:25:00,
2013-04-04 20:30:00,75.0,27.3,30.02,North,0,2.0,2.0,17,0.00,,SKC,0.00,VWS V14.01,2013-04-05 03:30:00,
2013-04-04 20:35:00,75.0,27.3,30.02,NNW,338,1.0,2.0,17,0.00,,SKC,0.00,VWS V14.01,2013-04-05 03:35:00,
2013-04-04 20:40:00,75.0,27.3,30.02,NE,45,1.0,1.0,17,0.00,,SKC,0.00,VWS V14.01,2013-04-05 03:40:00,
2013-04-04 20:47:00,75.0,27.3,30.02,NE,45,3.0,3.0,17,0.00,,SKC,0.00,VWS V14.01,2013-04-05 03:47:00,
2013-04-04 20:53:00,75.0,27.3,30.02,NNE,22,2.0,3.0,17,0.00,,SKC,0.00,VWS V14.01,2013-04-05 03:53:00,
2013-04-04 20:59:00,74.0,26.5,30.02,North,0,3.0,3.0,17,0.00,,SKC,0.00,VWS V14.01,2013-04-05 03:59:00,
2013-04-04 21:00:00,74.0,26.5,30.02,NE,45,4.0,5.0,17,0.00,,SKC,0.00,VWS V14.01,2013-04-05 04:00:00,
2013-04-04 21:03:00,74.0,26.5,30.03,North,0,3.0,3.0,17,0.00,,SKC,0.00,VWS V14.01,2013-04-05 04:03:00,
2013-04-04 21:04:00,74.0,26.5,30.02,North,0,3.0,3.0,17,0.00,,SKC,0.00,VWS V14.01,2013-04-05 04:04:00,
2013-04-04 21:05:00,74.0,26.5,30.02,North,0,3.0,3.0,17,0.00,,SKC,0.00,VWS V14.01,2013-04-05 04:05:00,
2013-04-04 21:10:00,74.0,26.5,30.03,North,0,2.0,2.0,17,0.00,,SKC,0.00,VWS V14.01,2013-04-05 04:10:00,
2013-04-04 21:17:00,74.0,27.9,30.03,North,0,2.0,3.0,18,0.00,,SKC,0.00,VWS V14.01,2013-04-05 04:17:00,
2013-04-04 21:23:00,74.0,27.9,30.03,NNW,338,2.0,3.0,18,0.00,,SKC,0.00,VWS V14.01,2013-04-05 04:23:00,
2013-04-04 21:29:00,73.0,27.0,30.03,NNE,22,3.0,3.0,18,0.00,,SKC,0.00,VWS V14.01,2013-04-05 04:29:00,
2013-04-04 21:35:00,73.0,27.0,30.03,NNE,22,3.0,3.0,18,0.00,,SKC,0.00,VWS V14.01,2013-04-05 04:35:00,
2013-04-04 21:40:00,72.0,27.5,30.03,North,0,3.0,3.0,19,0.00,,SKC,0.00,VWS V14.01,2013-04-05 04:40:00,
2013-04-04 21:45:00,72.0,27.5,30.03,North,0,3.0,4.0,19,0.00,,SKC,0.00,VWS V14.01,2013-04-05 04:45:00,
2013-04-04 21:50:00,72.0,27.5,30.03,NNE,22,2.0,3.0,19,0.00,,SKC,0.00,VWS V14.01,2013-04-05 04:50:00,
2013-04-04 21:55:00,72.0,27.5,30.03,North,0,5.0,6.0,19,0.00,,SKC,0.00,VWS V14.01,2013-04-05 04:55:00,
2013-04-04 22:01:00,72.0,27.5,30.03,North,0,3.0,4.0,19,0.00,,SKC,0.00,VWS V14.01,2013-04-05 05:01:00,
2013-04-04 22:06:00,72.0,27.5,30.03,NNW,338,3.0,3.0,19,0.00,,SKC,0.00,VWS V14.01,2013-04-05 05:06:00,
2013-04-04 22:11:00,71.0,28.0,30.03,North,0,4.0,5.0,20,0.00,,SKC,0.00,VWS V14.01,2013-04-05 05:11:00,
2013-04-04 22:16:00,71.0,28.0,30.03,NNW,338,3.0,3.0,20,0.00,,SKC,0.00,VWS V14.01,2013-04-05 05:16:00,
2013-04-04 22:22:00,71.0,28.0,30.03,NNW,338,3.0,3.0,20,0.00,,SKC,0.00,VWS V14.01,2013-04-05 05:22:00,
2013-04-04 22:28:00,71.0,26.7,30.03,North,0,3.0,3.0,19,0.00,,SKC,0.00,VWS V14.01,2013-04-05 05:28:00,
2013-04-04 22:33:00,71.0,26.7,30.03,North,0,3.0,4.0,19,0.00,,SKC,0.00,VWS V14.01,2013-04-05 05:33:00,
2013-04-04 22:38:00,71.0,26.7,30.03,NNE,22,3.0,3.0,19,0.00,,SKC,0.00,VWS V14.01,2013-04-05 05:38:00,
2013-04-04 22:43:00,71.0,26.7,30.03,North,0,3.0,5.0,19,0.00,,SKC,0.00,VWS V14.01,2013-04-05 05:43:00,
2013-04-04 22:48:00,71.0,28.0,30.03,NE,45,0.0,0.0,20,0.00,,SKC,0.00,VWS V14.01,2013-04-05 05:48:00,
2013-04-04 22:53:00,71.0,28.0,30.02,North,0,1.0,1.0,20,0.00,,SKC,0.00,VWS V14.01,2013-04-05 05:53:00,
2013-04-04 22:58:00,71.0,28.0,30.03,NNW,338,1.0,1.0,20,0.00,,SKC,0.00,VWS V14.01,2013-04-05 05:58:00,
2013-04-04 23:03:00,71.0,28.0,30.03,North,0,3.0,5.0,20,0.00,,SKC,0.00,VWS V14.01,2013-04-05 06:03:00,
2013-04-04 23:08:00,70.0,27.1,30.03,NNE,22,3.0,3.0,20,0.00,,SKC,0.00,VWS V14.01,2013-04-05 06:08:00,
2013-04-04 23:15:00,70.0,27.1,30.03,NNE,22,3.0,5.0,20,0.00,,SKC,0.00,VWS V14.01,2013-04-05 06:15:00,
2013-04-04 23:20:00,70.0,27.1,30.03,North,0,3.0,5.0,20,0.00,,SKC,0.00,VWS V14.01,2013-04-05 06:20:00,
2013-04-04 23:25:00,70.0,27.1,30.02,North,0,5.0,5.0,20,0.00,,SKC,0.00,VWS V14.01,2013-04-05 06:25:00,
2013-04-04 23:31:00,70.0,27.1,30.02,NNW,338,2.0,3.0,20,0.00,,SKC,0.00,VWS V14.01,2013-04-05 06:31:00,
2013-04-04 23:36:00,70.0,27.1,30.03,NNE,22,3.0,3.0,20,0.00,,SKC,0.00,VWS V14.01,2013-04-05 06:36:00,
2013-04-04 23:41:00,70.0,28.3,30.03,NNE,22,4.0,5.0,21,0.00,,SKC,0.00,VWS V14.01,2013-04-05 06:41:00,
2013-04-04 23:46:00,70.0,27.1,30.02,North,0,3.0,5.0,20,0.00,,SKC,0.00,VWS V14.01,2013-04-05 06:46:00,
2013-04-04 23:51:00,69.0,27.5,30.03,WNW,292,6.0,6.0,21,0.00,,SKC,0.00,VWS V14.01,2013-04-05 06:51:00,
2013-04-04 23:56:00,70.0,25.9,30.03,NW,315,3.0,3.0,19,0.00,,SKC,0.00,VWS V14.01,2013-04-05 06:56:00,